{"data":{"norad_id":48276,"intl_designator":"2021-036A","name":"STARLINK-2567","alt_names":[],"object_type":"PAYLOAD","status":"ACTIVE","operator":null,"country":"US","launch_date":"2021-04-29","launch_site_code":"AFETR","launch_vehicle":null,"mission":null,"orbit_class":"UNKNOWN","rcs_meters":null,"size_class":null,"mass_kg":null,"dimensions":null,"purposes":["comms"],"wikipedia_slug":null,"has_3d_model":false,"image_url":null,"decayed_at":null,"tle_current":{"epoch":"2026-09-19T12:53:05.700192Z","epoch_age_seconds":116938,"freshness":"FRESH","line1":"1 48276U 21036A   26262.53687153 -.00000733  00000+0 -11868-4 0  9997","line2":"2 48276  53.1587 228.7976 0001413  86.7444 273.3719 15.31698161298441","mean_motion":15.31698161,"eccentricity":0.0001413,"inclination_deg":53.1587,"raan_deg":228.7976,"arg_perigee_deg":86.7444,"mean_anomaly_deg":273.3719,"bstar":-1.1868e-5,"rev_number":29844,"period_min":94.013300835973,"perigee_km":469.77773010041,"apogee_km":471.71322428847,"semimajor_km":6848.8824771944,"source":"CELESTRAK","updated_at":"2026-09-20T09:00:38.927233Z"}}}